User: anonymous   Login
Location: Unspecified
(0.0000°N, 0.0000°E)
Time: 12:57:21
(UTC+00:00)
Language:

DMSP 5D-3 F19 (USA 249) - Orbit

View from above orbital plane
View from above orbital plane
View from above satellite
View from above satellite

Ground track
Ground track

The orbit is defined by the following mean orbital elements,

1 39630U          26146.23718242 +.00000000 +00000-0 +99109-4 0 00004
2 39630  98.7815 146.4873 0009172 272.0683  87.9441 14.14971384    06
Epoch (UTC): 26 May 2026 05:41:32
Eccentricity: 0.0009172
inclination: 98.7815°
perigee height: 836 km
apogee height: 849 km
right ascension of ascending node: 146.4873°
argument of perigee: 272.0683°
revolutions per day: 14.14971384
mean anomaly at epoch: 87.9441°

The dashed part of the orbit path shows where the satellite is in the earth's shadow,  

DLR